Погода в Авилесе

Испания     43°33′18″N   5°55′42″W
темп.,
°C
ветер,
м/с
пор.,
м/с
влажн.,
%
обл.,
%
осадки,
мм/ч
давл.,
гПа
погр.,
м
11 мая, вт
вт1123:00+7зюз25946 0.6 1012151
02:00+5юз279410 0.7 1014191
05:00+5ююз399310 0.1 1015222
08:00+5юз310915 0.1 1016326
11:00+13зюз4944100 0.0 10171912
14:00+15зсз494489 0.0 10172232
17:00+16зсз494494 0.0 10172419
20:00+12ссз3672100 0.1 1017621
12 мая, ср
ср1223:00+9ююв129393 0.3 101758
02:00+8ююв239588 0.6 101477
05:00+7ю22968 0.0 101145
08:00+8ю279056 0.0 1011231
11:00+11зсз81695100 1.3 10141667
14:00+10з4109388 2.7 1017968
17:00+10зсз41090100 0.9 1018836
20:00+11зсз377843 0.9 1019758
13 мая, чт
чт1323:00+8юз129658 0.2 102099
02:00+9ю2390100 0.3 101874
05:00+9ююз2386100 0.1 101694
08:00+9ю2493100 0.4 1015105
11:00+11ю129496 1.1 1014110
14:00+12ю0198100 3.9 101468
17:00+12ссз2398100 0.8 1013226
20:00+10ссз3697100 3.9 1016675
14 мая, пт
пт1423:00+9з269599 0.3 1018412
02:00+7ююз239624 0.4 1018103
05:00+6юз249576 0.1 1019150
08:00+7юз2394100 0.1 1020144
11:00+12з1374100 0.0 1020545
14:00+16ссз3447100 0.0 10191535
17:00+14с2257100 0.0 1018566
20:00+11с1273100 0.0 1018117
15 мая, сб
сб1523:00+11ююв2279100 0.1 101766
02:00+13ююз2468100 0.1 101594
05:00+12ююз2575100 0.0 101393
08:00+15юз31170100 0.0 1012450
11:00+22зюз51454100 0.0 10131371
14:00+23з51248100 0.0 10131648
17:00+23з51150100 0.0 10131885
20:00+19сз3971100 0.0 1014571